[[{"header":{"parameterUnit":"m.s-1","parameterCategory":1,"la1":30.2992,"la2":30.254,"lo1":-89.0895,"lo2":-89.0443,"dy":0.0025,"dx":0.0025,"nx":19,"ny":19,"refTime":"2026-03-20T21:00:00:Z","depth":0,"parameterNumber":2,"parameterNumberName":"U-component_of_WINDS"},"data":[0,0,0,1.2986,1.2989,1.313,1.313,1.3294,1.3295,0,0,0,0,0,0,0,0,0,0,0,1.2934,1.2935,1.2986,1.2989,1.313,1.3131,1.3293,1.3295,0,0,0,0,0,0,0,0,0,0,0,1.2934,1.2934,1.2935,1.299,1.313,1.3131,1.3293,1.3193,0,0,0,0,0,0,0,0,0,0,1.3059,1.3,1.2934,1.2935,1.299,1.3129,1.3131,1.3188,1.3199,1.3222,0,1.324,0,1.327,1.3305,1.3305,0,0,0,1.2997,1.2991,1.3039,1.2935,1.2992,1.3129,1.3069,1.3195,1.3207,1.3237,1.3242,1.3249,1.3272,1.3306,1.3306,1.3412,1.3412,0,0,1.2989,1.2954,1.303,1.3046,1.3023,1.3064,1.3073,1.3202,1.3206,1.3243,1.3253,1.3275,1.3307,1.3308,1.3412,1.3412,0,0,0,1.2962,1.2948,1.2993,1.3039,1.3066,1.3068,1.3078,1.3201,1.3218,1.3255,1.3277,1.3307,1.3309,1.3412,1.3412,1.3382,0,0,0,1.2957,1.2932,1.2989,1.2968,1.3063,1.3135,1.3073,1.3209,1.3225,1.3276,1.3307,1.3311,1.3412,1.3412,1.3383,1.3375,0,0,0,1.2928,1.2928,1.2945,1.2966,1.3025,1.3134,1.3159,1.3214,1.3238,1.3305,1.3311,1.3412,1.3412,1.3384,1.3376,1.3392,0,0,0,1.2887,1.2917,1.2944,1.2987,1.3024,1.3114,1.3158,1.3228,1.3282,1.3308,1.3412,1.3412,1.3384,1.3376,1.3392,1.3399,1.3398,0,0,1.2905,1.2918,1.2946,1.2974,1.305,1.3095,1.3168,1.3252,1.3291,1.3369,1.3373,1.3383,1.3376,1.3392,1.3407,1.3406,0,0,0,1.294,1.2959,1.2988,1.3037,1.3101,1.3155,1.3232,1.3263,1.3331,1.3324,1.3394,1.3391,1.3402,1.3407,1.3406,1.3418,1.3413,1.3412,1.3412,1.2915,1.2963,1.3012,1.3077,1.3124,1.3202,1.3245,1.33,1.3336,1.3351,1.3375,1.3378,1.3382,1.3382,1.3393,1.3382,1.3382,1.3382,1.3382,1.2946,1.2981,1.3027,1.3091,1.3141,1.3196,1.3272,1.3295,1.3353,1.3364,1.3376,1.3385,1.338,1.3392,1.338,1.3381,1.3381,1.3381,1.3381,1.2935,1.296,1.2997,1.3073,1.3126,1.3191,1.3244,1.3289,1.3331,1.3343,1.3372,1.3373,1.3379,1.3354,1.3354,1.3354,1.3354,1.3354,1.3354,1.2908,1.2951,1.299,1.306,1.3098,1.3152,1.323,1.3268,1.3322,1.335,1.3351,1.3384,1.337,1.3365,1.3354,1.3354,1.3354,1.3354,1.3354,1.2922,1.2926,1.2987,1.3024,1.311,1.3159,1.3215,1.3289,1.3326,1.3351,1.3382,1.3364,1.3381,1.3382,1.3379,1.3371,1.3371,1.3371,1.3371,1.2913,1.2925,1.2997,1.3054,1.3114,1.3171,1.3238,1.3298,1.3361,1.3388,1.3395,1.3394,1.3393,1.3411,1.3411,1.3409,1.3409,1.3409,1.3409,1.2924,1.2944,1.2993,1.3054,1.3125,1.3184,1.3248,1.3311,1.3383,1.3412,1.3409,1.3408,1.3407,1.3404,1.3433,1.3432,1.3429,0,0]},{"header":{"parameterUnit":"m.s-1","parameterCategory":1,"la1":30.2992,"la2":30.254,"lo1":-89.0895,"lo2":-89.0443,"dy":0.0025,"dx":0.0025,"nx":19,"ny":19,"refTime":"2026-03-20T21:00:00:Z","depth":0,"parameterNumber":3,"parameterNumberName":"V-component_of_WINDS"},"data":[0,0,0,4.0292,4.0291,4.021,4.0209,4.0104,4.0103,0,0,0,0,0,0,0,0,0,0,0,4.0319,4.0319,4.0292,4.029,4.021,4.0209,4.0104,4.0103,0,0,0,0,0,0,0,0,0,0,0,4.032,4.0319,4.0318,4.029,4.021,4.0209,4.0104,4.0165,0,0,0,0,0,0,0,0,0,0,4.0243,4.0272,4.0319,4.0318,4.029,4.021,4.0209,4.0168,4.0161,4.0141,0,4.0128,0,4.0115,4.0096,4.0096,0,0,0,4.0286,4.0278,4.0254,4.0318,4.0289,4.021,4.0245,4.0164,4.0156,4.0132,4.0127,4.0123,4.0113,4.0096,4.0095,4.0005,4.0004,0,0,4.0291,4.0305,4.0259,4.025,4.0267,4.0248,4.0243,4.0159,4.0152,4.0126,4.012,4.0111,4.0095,4.0094,4.0005,4.0005,0,0,0,4.0306,4.0308,4.0286,4.0254,4.024,4.0245,4.024,4.0156,4.0148,4.0119,4.011,4.0094,4.0093,4.0005,4.0005,4.0009,0,0,0,4.0309,4.0317,4.0289,4.0296,4.0242,4.0198,4.0238,4.0154,4.0144,4.011,4.0094,4.0092,4.0005,4.0005,4.0009,4.0007,0,0,0,4.0323,4.0319,4.0309,4.0297,4.0264,4.0199,4.0186,4.0151,4.0138,4.0096,4.0092,4.0006,4.0005,4.001,4.0008,3.9988,0,0,0,4.0341,4.0311,4.0309,4.0271,4.0265,4.0204,4.0186,4.0139,4.0103,4.0094,4.0005,4.0005,4.001,4.0008,3.9989,3.9975,3.9971,0,0,4.031,4.0307,4.0284,4.028,4.0225,4.0215,4.0157,4.0108,4.0088,4.0032,4.003,4.0009,4.0008,3.9988,3.9942,3.9939,0,0,0,4.0278,4.0262,4.0244,4.0213,4.0179,4.0148,4.0107,4.0089,4.0042,4.0064,3.9996,3.9995,3.9983,3.9975,3.9973,3.9961,4.0002,4.0002,4.0002,4.0253,4.0234,4.0194,4.0166,4.0135,4.0096,4.0068,4.0036,4.0022,4.0006,3.9989,3.9964,3.9956,3.9954,3.9942,3.9981,3.9981,3.9981,3.9981,4.0205,4.0178,4.0165,4.0122,4.01,4.0061,4.0021,4.0013,3.9971,3.9975,3.9963,3.9969,3.9951,3.994,3.9981,3.9981,3.9981,3.9981,3.9981,4.0186,4.017,4.0152,4.0107,4.0074,4.0044,4.0007,3.9987,3.9968,3.9957,3.9937,3.9936,3.9933,3.9949,3.9949,3.9949,3.9949,3.9949,3.9949,4.0172,4.0153,4.0126,4.0089,4.0068,4.0036,3.9997,3.9974,3.9942,3.9931,3.9931,3.9918,3.9954,3.9964,3.9947,3.9947,3.9948,3.9948,3.9948,4.013,4.0138,4.0096,4.0076,4.0031,3.9999,3.9976,3.9931,3.9908,3.989,3.988,3.9911,3.9905,3.9907,3.9914,3.9886,3.9886,3.9886,3.9886,4.0113,4.011,4.0065,4.0033,3.9999,3.9975,3.9926,3.9895,3.9863,3.9847,3.9849,3.9857,3.986,3.9852,3.9855,3.9862,3.982,3.982,3.982,4.0086,4.0079,4.0043,4.0017,3.9981,3.9949,3.9903,3.9863,3.9827,3.9817,3.9834,3.9837,3.9851,3.9856,3.9845,3.9851,3.9863,0,0]}]]